Home   Weather   Wailuku   Past weeks

Flag for USA Past Weather in Wailuku, Hawaii, USA — Yesterday and Last 2 Weeks

77 °F

Partly cloudy.

Feels Like: 79 °F
Forecast: 76 / 85 °F
Wind: 13 mph from Northeast

Location: Kahului Airport

Current Time: Oct 20, 2016 at 11:20:04 PM

Latest Report: Oct 20, 2016 at 10:54 PM

Visibility: 10 mi

Pressure: 30.07 "Hg

Humidity: 79%

Dew Point: 70 °F

Location of WailukuLocation

Past Weather in Wailuku — Graph


Wailuku Temperature Yesterday

Maximum temperature yesterday: 87 °F (at 10:54 AM)
Minimum temperature yesterday: 68 °F (at 2:54 AM)
Average temperature yesterday: 78 °F

High & Low Weather Summary for the Past Weeks

High89 °F (Oct 6, 11:54 AM)90% (Oct 18, 6:54 AM)30.14 "Hg (Oct 18, 6:54 AM)
Low65 °F (Oct 10, 4:54 AM)45% (Oct 6, 1:54 PM)29.91 "Hg (Oct 8, 2:54 PM)
Average79 °F69%30.02 "Hg
* Reported Oct 5 9:54 PM — Oct 20 9:54 PM, Wailuku, Weather by CustomWeather, © 2016

Note: Actual official high and low records may vary slightly from our data, if they occured in-between our weather recording intervals... More about our weather records


Wailuku Weather History for the Previous 24 Hours

Scroll right to see more
Time TempWeatherWind HumidityBarometerVisibility
9:54 PM
Thu, Oct 20
76 °FPassing clouds.14 mph82%30.07 "Hg10 mi
8:54 PM75 °FPassing clouds.6 mph85%30.07 "Hg10 mi
7:54 PM77 °FPassing clouds.12 mph74%30.06 "Hg10 mi
6:54 PM78 °FPassing clouds.12 mph74%30.05 "Hg10 mi
5:54 PM79 °FScattered clouds.15 mph72%30.04 "Hg10 mi
4:54 PM81 °FScattered clouds.14 mph65%30.02 "Hg10 mi
3:54 PM83 °FScattered clouds.22 mph61%30.01 "Hg10 mi
2:54 PM84 °FScattered clouds.25 mph55%30.01 "Hg10 mi
1:54 PM86 °FScattered clouds.26 mph53%30.02 "Hg10 mi
12:54 PM86 °FScattered clouds.26 mph53%30.05 "Hg10 mi
11:54 AM86 °FScattered clouds.23 mph55%30.07 "Hg10 mi
10:54 AM86 °FPassing clouds.23 mph49%30.08 "Hg10 mi
9:54 AM85 °FPassing clouds.20 mph51%30.09 "Hg10 mi
8:54 AM82 °FPassing clouds.15 mph58%30.08 "Hg10 mi
7:54 AM79 °FPassing clouds.16 mph67%30.08 "Hg10 mi
6:54 AM76 °FPassing clouds.13 mph72%30.07 "Hg10 mi
5:54 AM75 °FPassing clouds.10 mph74%30.05 "Hg10 mi
4:54 AM74 °FPassing clouds.12 mph82%30.03 "Hg10 mi
3:54 AM73 °FMostly cloudy.10 mph88%30.03 "Hg10 mi
2:54 AM74 °FMostly cloudy.17 mph88%30.03 "Hg10 mi
1:54 AM76 °FClear.17 mph82%30.03 "Hg10 mi
12:54 AM76 °FClear.16 mph80%30.05 "Hg10 mi
11:54 PM
Wed, Oct 19
76 °FClear.15 mph82%30.07 "Hg10 mi
Weather by CustomWeather, © 2016

See weather overviewHow to use our weather pages